Location: *
(60.1759°S, 155.0663°W)
Time: 11:55:36
(UTC+00:00)

NOSS 3-4 (C) - Pass Details

Date: 17 September 2019
Orbit: 913 x 1299 km, 63.4° (Epoch: 21 September)

Event Time Altitude Azimuth Distance (km) Brightness Sun altitude
Exits shadow 14:10:02 17° 263° (W) 2,716 5.3 -16.9°
Maximum altitude 14:16:18 70° 181° (S) 1,259 4.1 -16.2°
Drops below altitude 10° 14:23:26 10° 97° (E) 2,968 7.2 -15.4°
Sets 14:26:01 0° 94° (E) 3,869 8.1 -15.1°
